S51BR Weather Reports


Display with metric or nautical units.
time (UTC)temp
F
wind
direction
speed
MPH
gust
MPH
rain 1hr
in
rain 24hr
in
rain mn
in
humidity
%
barometer
mb
20260503021005 53 127 0.0 1.0 0.00 0.00 0.00 61 1019.6
20260503020506 53 127 0.0 1.0 0.00 0.00 0.00 61 1019.7
20260503020008 53 127 0.0 1.0 0.00 0.00 0.00 61 1019.7
20260503015506 53 127 0.0 1.0 0.00 0.00 0.00 61 1019.7
20260503015003 53 127 0.0 1.0 0.00 0.00 0.00 61 1019.7
20260503014508 53 127 0.0 1.0 0.00 0.00 0.00 61 1019.7
20260503014002 53 127 0.0 1.0 0.00 0.00 0.00 61 1019.8
20260503013503 53 127 0.0 1.0 0.00 0.00 0.00 61 1019.9
20260503013012 54 127 0.0 1.0 0.00 0.00 0.00 61 1019.9
20260503012507 54 127 0.0 1.0 0.00 0.00 0.00 61 1020.0
20260503012006 54 127 0.0 1.0 0.00 0.00 0.00 61 1020.1
20260503011512 54 127 0.0 1.0 0.00 0.00 0.00 60 1020.1
20260503011004 54 120 0.0 1.0 0.00 0.00 0.00 61 1020.1
20260503010503 54 120 0.0 1.0 0.00 0.00 0.00 60 1020.1
20260503010010 54 120 0.0 1.0 0.00 0.00 0.00 60 1020.1
20260503005506 54 120 0.0 1.0 0.00 0.00 0.00 60 1020.1
20260503005004 54 119 0.0 1.0 0.00 0.00 0.00 60 1020.2
20260503004508 54 111 0.0 2.0 0.00 0.00 0.00 60 1020.2
20260503004009 54 111 1.0 2.0 0.00 0.00 0.00 60 1020.2
20260503003505 55 87 0.0 2.0 0.00 0.00 0.00 60 1020.2
20260503003012 55 127 0.0 1.0 0.00 0.00 0.00 59 1020.2
20260503002504 55 131 0.0 1.0 0.00 0.00 0.00 59 1020.2
20260503002006 55 137 0.0 1.0 0.00 0.00 0.00 60 1020.2
20260503001512 55 137 0.0 1.0 0.00 0.00 0.00 60 1020.3
20260503001006 55 137 0.0 1.0 0.00 0.00 0.00 60 1020.4
20260503000510 55 137 0.0 1.0 0.00 0.00 0.00 61 1020.4
20260503000028 55 132 0.0 1.0 0.00 0.00 0.00 61 1020.4
20260502235506 55 132 0.0 0.0 0.00 0.00 0.00 61 1020.4
20260502235006 55 132 0.0 1.0 0.00 0.00 0.00 60 1020.4
20260502234513 54 132 0.0 1.0 0.00 0.00 0.00 61 1020.5
20260502234004 54 132 0.0 1.0 0.00 0.00 0.00 61 1020.6
20260502233504 54 132 0.0 0.0 0.00 0.00 0.00 61 1020.6
20260502233010 55 132 0.0 1.0 0.00 0.00 0.00 61 1020.6
20260502232503 55 132 0.0 1.0 0.00 0.00 0.00 61 1020.7
20260502232005 55 132 0.0 1.0 0.00 0.00 0.00 60 1020.7
20260502231507 55 132 0.0 1.0 0.00 0.00 0.00 61 1020.7
20260502231004 55 132 0.0 1.0 0.00 0.00 0.00 60 1020.7
20260502230504 55 132 0.0 1.0 0.00 0.00 0.00 60 1020.7
20260502230013 55 132 0.0 1.0 0.00 0.00 0.00 61 1020.7
20260502225506 55 132 0.0 1.0 0.00 0.00 0.00 62 1020.8
20260502225010 55 132 0.0 0.0 0.00 0.00 0.00 61 1020.8
20260502224517 55 132 0.0 1.0 0.00 0.00 0.00 60 1020.9
20260502224012 56 132 0.0 1.0 0.00 0.00 0.00 59 1020.9
20260502223506 56 132 0.0 1.0 0.00 0.00 0.00 58 1020.9
20260502223025 56 132 0.0 1.0 0.00 0.00 0.00 59 1020.9
20260502222504 55 132 0.0 1.0 0.00 0.00 0.00 59 1021.0
20260502222009 56 132 0.0 0.0 0.00 0.00 0.00 59 1021.0
20260502221512 56 132 0.0 1.0 0.00 0.00 0.00 58 1021.0
20260502221007 56 132 0.0 1.0 0.00 0.00 0.00 58 1021.0
20260502220507 56 132 0.0 1.0 0.00 0.00 0.00 58 1021.0
20260502220008 56 132 0.0 1.0 0.00 0.00 0.00 58 1021.0
20260502215507 57 132 0.0 1.0 0.00 0.00 0.00 57 1021.0
20260502215011 57 132 0.0 0.0 0.00 0.00 0.00 56 1021.0
20260502214516 58 132 0.0 0.0 0.00 0.00 0.00 56 1020.9
20260502214010 58 132 0.0 1.0 0.00 0.00 0.00 55 1020.9
20260502213506 58 132 0.0 1.0 0.00 0.00 0.00 55 1020.9
20260502213015 58 132 0.0 1.0 0.00 0.00 0.00 55 1020.9
20260502212506 58 132 0.0 1.0 0.00 0.00 0.00 56 1020.9
20260502212007 58 132 0.0 1.0 0.00 0.00 0.00 56 1020.9
20260502211512 58 132 0.0 1.0 0.00 0.00 0.00 57 1020.9
20260502211009 57 132 1.0 1.0 0.00 0.00 0.00 56 1020.9
20260502210507 57 132 0.0 1.0 0.00 0.00 0.00 57 1020.9
20260502210012 57 132 0.0 1.0 0.00 0.00 0.00 59 1020.9
20260502205506 57 132 0.0 1.0 0.00 0.00 0.00 58 1020.9
20260502205007 57 132 0.0 1.0 0.00 0.00 0.00 57 1021.0
20260502204508 58 132 0.0 1.0 0.00 0.00 0.00 57 1021.0
20260502204007 58 132 0.0 1.0 0.00 0.00 0.00 56 1021.0
20260502203506 59 132 0.0 1.0 0.00 0.00 0.00 55 1021.1
20260502203014 59 132 0.0 1.0 0.00 0.00 0.00 54 1021.0
20260502202506 58 132 1.0 1.0 0.00 0.00 0.00 57 1021.0
20260502202006 57 132 0.0 1.0 0.00 0.00 0.00 58 1021.0
20260502201515 58 133 0.0 1.0 0.00 0.00 0.00 57 1021.1
20260502201006 58 133 0.0 1.0 0.00 0.00 0.00 56 1021.1
20260502200508 59 132 1.0 1.0 0.00 0.00 0.00 55 1021.1
20260502200017 60 132 1.0 2.0 0.00 0.00 0.00 52 1021.2
20260502195505 61 133 0.0 2.0 0.00 0.00 0.00 51 1021.1
20260502195008 61 137 1.0 2.0 0.00 0.00 0.00 49 1021.0
20260502194508 62 137 1.0 2.0 0.00 0.00 0.00 49 1021.0
20260502194003 61 126 1.0 2.0 0.00 0.00 0.00 49 1020.9
20260502193507 62 120 1.0 2.0 0.00 0.00 0.00 48 1020.9
20260502193008 62 120 1.0 2.0 0.00 0.00 0.00 48 1020.8
20260502192506 62 124 1.0 2.0 0.00 0.00 0.00 48 1020.8
20260502192006 62 124 1.0 2.0 0.00 0.00 0.00 48 1020.8
20260502191508 62 126 1.0 2.0 0.00 0.00 0.00 48 1020.8
20260502191003 62 126 1.0 3.0 0.00 0.00 0.00 48 1020.7
20260502190504 62 126 1.0 3.0 0.00 0.00 0.00 47 1020.7
20260502190010 62 123 1.0 2.0 0.00 0.00 0.00 48 1020.7
20260502185503 62 121 1.0 2.0 0.00 0.00 0.00 48 1020.7
20260502185004 62 124 1.0 2.0 0.00 0.00 0.00 47 1020.6
20260502184510 62 135 1.0 2.0 0.00 0.00 0.00 47 1020.6
20260502184002 62 123 1.0 2.0 0.00 0.00 0.00 47 1020.6
20260502183504 63 123 1.0 2.0 0.00 0.00 0.00 46 1020.5
20260502183007 63 134 1.0 2.0 0.00 0.00 0.00 46 1020.5
20260502182504 63 136 1.0 3.0 0.00 0.00 0.00 45 1020.5
20260502182006 63 141 1.0 3.0 0.00 0.00 0.00 45 1020.5
20260502181508 63 122 1.0 2.0 0.00 0.00 0.00 44 1020.5
20260502181004 63 122 1.0 3.0 0.00 0.00 0.00 44 1020.4
20260502180503 64 132 1.0 3.0 0.00 0.00 0.00 44 1020.3
20260502170506 68 151 1.0 2.0 0.00 0.00 0.00 40 1020.4
20260502164003 70 215 0.0 2.0 0.00 0.00 0.00 38 1020.6
20260502163505 71 210 0.0 3.0 0.00 0.00 0.00 39 1020.6
20260502163015 71 175 1.0 3.0 0.00 0.00 0.00 38 1020.6
20260502162504 71 154 1.0 5.0 0.00 0.00 0.00 35 1020.7
20260502162004 72 172 1.0 5.0 0.00 0.00 0.00 36 1020.7
20260502161508 72 282 0.0 2.0 0.00 0.00 0.00 37 1020.7
20260502161009 72 191 1.0 2.0 0.00 0.00 0.00 36 1020.8
20260502160508 72 149 1.0 3.0 0.00 0.00 0.00 34 1020.8
20260502152007 72 146 1.0 4.0 0.00 0.00 0.00 34 1021.1
20260502151537 73 300 2.0 4.0 0.00 0.00 0.00 35 1021.2
20260502151004 73 311 2.0 4.0 0.00 0.00 0.00 34 1021.3
20260502150503 73 297 2.0 5.0 0.00 0.00 0.00 35 1021.4
20260502130508 72 327 1.0 7.0 0.00 0.00 0.00 36 1022.4
20260502123507 72 8 2.0 6.0 0.00 0.00 0.00 38 1022.8
20260502123014 72 352 2.0 6.0 0.00 0.00 0.00 35 1022.9
20260502122506 71 254 2.0 5.0 0.00 0.00 0.00 38 1023.0
20260502122007 71 18 3.0 5.0 0.00 0.00 0.00 34 1023.0
20260502121517 72 143 2.0 4.0 0.00 0.00 0.00 35 1023.0
20260502121007 72 159 1.0 4.0 0.00 0.00 0.00 37 1023.0
20260502120508 72 210 2.0 3.0 0.00 0.00 0.00 39 1023.1
20260502115506 71 307 2.0 5.0 0.00 0.00 0.00 36 1023.1
20260502115006 72 1 1.0 4.0 0.00 0.00 0.00 37 1023.2
20260502114514 72 13 0.0 5.0 0.00 0.00 0.00 38 1023.2
20260502114007 71 304 2.0 7.0 0.00 0.00 0.00 36 1023.3
20260502113506 71 357 2.0 7.0 0.00 0.00 0.00 38 1023.4
20260502113018 72 313 2.0 5.0 0.00 0.00 0.00 37 1023.5
20260502112504 71 349 2.0 5.0 0.00 0.00 0.00 39 1023.5
20260502112006 71 186 1.0 4.0 0.00 0.00 0.00 38 1023.6
20260502111516 71 4 2.0 4.0 0.00 0.00 0.00 38 1023.6
20260502111011 70 9 1.0 6.0 0.00 0.00 0.00 36 1023.6
20260502110507 70 58 2.0 6.0 0.00 0.00 0.00 35 1023.7
20260502110016 71 312 2.0 5.0 0.00 0.00 0.00 37 1023.8
20260502105507 70 242 1.0 5.0 0.00 0.00 0.00 38 1023.8
20260502105007 70 159 1.0 4.0 0.00 0.00 0.00 37 1023.9
20260502104518 70 161 1.0 7.0 0.00 0.00 0.00 39 1023.9
20260502104010 70 252 3.0 7.0 0.00 0.00 0.00 36 1024.0
20260502103507 70 236 1.0 4.0 0.00 0.00 0.00 35 1024.0
20260502103017 71 321 1.0 4.0 0.00 0.00 0.00 39 1024.0
20260502102507 71 6 2.0 5.0 0.00 0.00 0.00 36 1024.0
20260502102007 71 202 2.0 5.0 0.00 0.00 0.00 40 1024.0
20260502101511 71 240 1.0 4.0 0.00 0.00 0.00 41 1024.2
20260502101007 70 243 2.0 4.0 0.00 0.00 0.00 39 1024.3
20260502100507 69 306 1.0 5.0 0.00 0.00 0.00 38 1024.4
20260502091509 67 346 2.0 5.0 0.00 0.00 0.00 40 1024.8
20260502091006 67 316 3.0 4.0 0.00 0.00 0.00 44 1024.9
20260502090511 67 31 2.0 4.0 0.00 0.00 0.00 43 1025.0
20260502071520 60 32 1.0 3.0 0.00 0.00 0.00 53 1025.5
20260502071009 59 23 1.0 4.0 0.00 0.00 0.00 50 1025.5
20260502070509 58 358 0.0 4.0 0.00 0.00 0.00 51 1025.5
20260502070024 58 7 0.0 6.0 0.00 0.00 0.00 51 1025.4
20260502065507 57 23 1.0 6.0 0.00 0.00 0.00 52 1025.4
20260502065007 57 352 2.0 4.0 0.00 0.00 0.00 51 1025.5
20260502064512 57 30 1.0 3.0 0.00 0.00 0.00 51 1025.4
20260502064008 56 18 1.0 4.0 0.00 0.00 0.00 52 1025.4
20260502063506 56 50 1.0 4.0 0.00 0.00 0.00 51 1025.4
20260502063033 56 354 1.0 3.0 0.00 0.00 0.00 53 1025.4
20260502062507 55 180 1.0 4.0 0.00 0.00 0.00 54 1025.4
20260502062014 55 54 1.0 4.0 0.00 0.00 0.00 54 1025.5
20260502061521 54 352 1.0 5.0 0.00 0.00 0.00 55 1025.5
20260502061010 53 171 1.0 5.0 0.00 0.00 0.00 56 1025.5
20260502060507 53 347 1.0 4.0 0.00 0.00 0.00 59 1025.5
20260502060024 52 91 1.0 5.0 0.00 0.00 0.00 59 1025.5
20260502055509 52 25 1.0 5.0 0.00 0.00 0.00 59 1025.5
20260502055006 51 1 1.0 5.0 0.00 0.00 0.00 61 1025.5
20260502054526 50 246 1.0 5.0 0.00 0.00 0.00 63 1025.5
20260502054003 50 341 1.0 3.0 0.00 0.00 0.00 63 1025.6
20260502053506 49 134 1.0 4.0 0.00 0.00 0.00 64 1025.5
20260502053014 48 86 0.0 4.0 0.00 0.00 0.00 65 1025.5
20260502052508 48 113 0.0 1.0 0.00 0.00 0.00 65 1025.5
20260502052009 48 122 0.0 1.0 0.00 0.00 0.00 66 1025.5
20260502051519 48 112 0.0 4.0 0.00 0.00 0.00 67 1025.5
20260502051010 48 113 0.0 4.0 0.00 0.00 0.00 65 1025.5
20260502050513 48 7 1.0 4.0 0.00 0.00 0.00 65 1025.6
20260502050035 48 148 1.0 3.0 0.00 0.00 0.00 65 1025.6
20260502045507 47 118 0.0 3.0 0.00 0.00 0.00 65 1025.5
20260502045007 47 29 1.0 3.0 0.00 0.00 0.00 66 1025.5
20260502044522 47 113 0.0 3.0 0.00 0.00 0.00 67 1025.4
20260502044008 47 73 0.0 3.0 0.00 0.00 0.00 67 1025.5
20260502043506 46 145 0.0 1.0 0.00 0.00 0.00 68 1025.5
20260502043010 46 146 0.0 1.0 0.00 0.00 0.00 68 1025.6
20260502042508 46 102 0.0 1.0 0.00 0.00 0.00 68 1025.5
20260502042007 46 105 0.0 1.0 0.00 0.00 0.00 67 1025.5
20260502041522 46 140 0.0 1.0 0.00 0.00 0.00 67 1025.6
20260502041007 46 140 0.0 1.0 0.00 0.00 0.00 67 1025.6
20260502040507 47 140 0.0 1.0 0.00 0.00 0.00 67 1025.7
20260502040022 47 140 0.0 1.0 0.00 0.00 0.00 67 1025.6
20260502035508 46 140 0.0 1.0 0.00 0.00 0.00 67 1025.6
20260502035008 46 140 0.0 1.0 0.00 0.00 0.00 67 1025.5
20260502034524 46 140 0.0 1.0 0.00 0.00 0.00 67 1025.5
20260502034008 46 140 0.0 1.0 0.00 0.00 0.00 67 1025.5
20260502033507 47 140 0.0 2.0 0.00 0.00 0.00 66 1025.4
20260502033029 47 140 0.0 2.0 0.00 0.00 0.00 66 1025.3
20260502032509 46 96 0.0 1.0 0.00 0.00 0.00 66 1025.4
20260502032005 46 158 0.0 1.0 0.00 0.00 0.00 66 1025.4
20260502031514 46 158 0.0 1.0 0.00 0.00 0.00 67 1025.4
20260502031006 47 131 0.0 1.0 0.00 0.00 0.00 66 1025.5
20260502030512 47 131 0.0 1.0 0.00 0.00 0.00 65 1025.5
20260502030024 47 131 0.0 1.0 0.00 0.00 0.00 65 1025.5
20260502025506 47 131 0.0 1.0 0.00 0.00 0.00 65 1025.5
20260502025009 47 131 0.0 1.0 0.00 0.00 0.00 65 1025.6
20260502024524 47 127 0.0 2.0 0.00 0.00 0.00 65 1025.6
20260502024009 47 125 0.0 2.0 0.00 0.00 0.00 65 1025.5
20260502023510 47 108 0.0 2.0 0.00 0.00 0.00 65 1025.6
20260502023024 47 123 0.0 2.0 0.00 0.00 0.00 64 1025.6
20260502022508 47 121 0.0 1.0 0.00 0.00 0.00 64 1025.6
20260502022011 47 124 0.0 1.0 0.00 0.00 0.00 64 1025.7
20260502021525 48 98 0.0 1.0 0.00 0.00 0.00 64 1025.7